Wind_Speed
25 25 24 24 24 24 24 23 23 24 24 24 25 25 25 24 24 23 23 22 22 22 21 21 21 21 20 20 20 19 19 20 20 20 20 20 20 20 20 20 20 19 19
27 26 24 24 25 26 26 25 25 25 26 26 26 26 26 25 25 24 23 22 22 22 22 21 21 20 20 21 21 21 21 21 21 21 21 21 21 21 22 21 21 20 20
28 27 26 25 25 27 27 27 27 28 28 28 28 28 27 27 26 25 24 23 22 22 22 22 21 21 21 22 22 22 22 22 22 22 22 21 21 21 21 21 22 22 22
27 27 27 27 27 27 28 29 29 29 29 29 29 29 28 27 27 26 24 23 23 22 22 22 22 21 22 22 22 23 23 23 23 23 22 22 22 21 21 21 22 23 23
28 28 29 30 30 30 30 30 29 29 29 29 29 28 27 27 27 27 26 25 24 23 22 22 22 22 22 22 23 23 23 23 23 22 21 21 20 21 21 21 22 23 24
30 30 31 32 32 31 30 30 29 28 28 28 28 28 28 27 27 27 27 26 24 24 23 22 22 22 21 21 22 22 23 22 22 22 21 21 21 21 21 21 22 22 23
31 32 32 32 32 31 31 31 30 29 28 27 28 28 27 26 26 25 26 25 24 25 24 23 23 22 21 21 21 21 21 21 21 22 21 21 22 22 22 22 22 23 23
33 33 32 33 33 32 32 30 30 30 29 28 28 28 28 27 26 26 25 25 25 24 25 25 24 24 23 22 21 21 20 21 21 21 22 22 22 23 23 23 23 23 23
31 31 32 32 32 32 31 30 30 29 29 29 29 30 29 28 27 27 26 26 26 26 25 25 25 24 24 23 22 22 22 22 22 22 22 22 22 22 22 22 23 23 23
29 30 31 31 31 30 30 30 31 30 29 29 29 30 29 29 28 27 27 27 27 27 27 26 26 25 25 25 25 24 23 23 23 23 23 23 23 23 23 23 22 23 23
28 28 29 30 30 30 29 30 30 30 30 30 30 29 29 29 29 28 28 29 28 29 28 28 27 26 25 24 24 24 25 24 24 24 24 24 24 23 24 24 24 24 23
28 28 29 28 29 29 30 30 30 30 30 31 31 30 30 30 29 29 30 29 29 29 29 27 27 26 26 25 25 25 26 25 24 24 23 24 24 24 24 24 24 24 24
27 28 28 28 28 29 29 29 29 30 29 28 28 28 29 29 29 30 30 30 30 30 29 28 27 27 27 26 26 26 27 26 25 24 24 24 24 24 24 24 24 24 24
26 27 27 28 28 28 27 28 28 28 28 27 27 28 28 29 29 30 30 30 30 30 29 29 28 27 27 26 27 27 27 26 25 25 25 25 25 25 24 24 24 23 23
26 27 27 27 27 27 27 26 26 26 27 27 27 27 28 29 30 31 31 30 30 29 29 29 28 27 27 27 26 27 27 27 27 26 26 26 25 25 25 24 24 24 24
26 26 26 26 26 26 26 26 25 25 25 25 25 25 26 27 28 29 30 30 30 30 29 29 27 27 26 26 26 26 26 26 27 27 26 26 25 25 25 24 23 23 23
24 25 25 24 25 25 25 24 24 23 23 24 24 25 25 26 27 28 28 29 30 30 29 29 28 27 27 26 26 26 27 27 26 26 26 26 26 26 25 24 24 23 23
22 23 24 24 24 24 23 23 22 23 23 23 24 25 25 25 26 26 26 27 28 28 28 28 28 28 27 26 26 26 26 26 26 25 26 26 26 26 25 24 24 24 23
21 21 21 22 22 21 21 21 21 21 22 22 23 24 25 25 24 25 25 26 25 26 26 27 27 27 26 26 26 26 26 26 26 26 26 26 25 25 24 24 24 24 24
20 20 20 20 20 20 20 20 20 21 21 22 22 23 23 24 24 24 25 25 25 25 25 26 26 25 25 26 26 25 25 25 25 25 25 25 25 25 24 24 23 23 23
20 20 19 19 18 18 18 18 19 19 20 21 21 21 22 22 23 24 24 24 24 25 25 25 25 25 25 25 25 25 25 25 25 25 25 25 25 25 25 24 24 23 23
18 18 18 18 17 17 17 17 17 17 18 19 20 21 22 22 23 23 23 24 25 25 25 25 25 25 25 24 24 24 25 25 25 25 25 25 25 25 24 24 24 23 23
17 17 17 17 16 16 16 16 16 15 16 17 19 20 21 21 21 21 22 23 23 23 24 24 24 24 24 23 23 24 24 24 24 24 24 24 24 24 24 24 24 24 24
16 16 17 16 15 15 15 15 15 15 15 16 17 19 19 20 20 20 20 20 21 21 22 22 22 22 23 23 23 23 22 22 22 23 23 23 24 24 24 24 24 24 24
16 16 16 15 14 14 14 14 15 16 17 17 17 17 18 18 18 18 19 19 20 20 20 20 20 20 20 21 21 21 21 21 21 22 23 24 24 24 24 23 23 23 24
15 15 15 15 14 14 14 15 16 17 17 16 16 16 17 17 18 18 18 19 19 19 19 19 19 19 19 20 20 20 21 21 22 23 24 24 24 24 24 24 23 24 24
Wind_Direction
275 276 276 276 275 275 273 272 272 272 273 273 273 272 271 272 274 274 274 273 272 272 273 274 275 276 275 276 277 276 276 276 278 279 280 281 280 279 281 282 282 284 286
270 273 275 275 272 272 272 272 272 272 272 271 272 272 271 273 274 274 273 272 270 271 271 272 273 274 275 275 276 277 276 275 275 277 280 280 280 280 281 280 281 284 285
269 271 271 272 273 273 273 271 272 273 272 271 270 271 271 273 274 272 271 270 269 269 270 272 271 272 274 274 274 275 276 276 275 276 277 280 281 284 284 282 282 283 285
270 270 270 271 271 272 272 272 274 272 270 268 269 268 268 268 269 269 269 268 268 269 270 270 270 271 274 275 274 274 275 276 277 277 277 279 281 283 283 281 281 282 284
272 271 271 271 272 272 273 273 273 271 270 267 267 266 264 264 264 266 267 267 267 268 269 270 270 270 271 273 275 274 274 275 276 276 278 280 282 283 283 281 280 280 283
271 272 273 274 274 273 274 274 273 270 268 266 265 264 263 262 262 263 265 266 265 265 267 268 269 268 270 273 274 273 271 272 274 275 277 279 281 282 284 282 280 280 282
273 274 275 275 277 274 274 274 273 270 268 267 263 263 263 262 262 262 264 264 264 264 267 267 268 269 269 271 272 273 271 271 272 274 276 278 280 282 284 284 282 281 282
275 276 277 279 279 277 276 273 272 269 267 266 264 264 262 261 260 261 261 262 262 262 264 265 266 266 266 269 272 271 271 272 274 275 277 279 283 283 283 284 285 284 283
275 275 275 277 277 275 273 271 270 268 266 264 263 264 262 260 260 260 259 259 260 261 263 264 264 264 266 268 269 267 267 270 272 275 277 280 283 286 287 287 286 285 286
276 276 275 275 275 273 271 270 269 268 265 262 261 263 260 258 258 258 257 257 259 261 262 261 262 264 267 268 268 266 266 269 271 273 276 278 282 285 286 288 289 287 287
276 277 276 275 274 272 272 270 268 266 265 262 261 261 258 257 258 257 258 256 258 261 261 262 262 263 266 266 268 266 266 268 270 271 275 278 280 283 285 286 288 289 288
275 275 275 275 274 272 271 270 269 267 266 264 262 259 259 258 256 255 257 256 258 260 261 262 261 262 264 267 268 267 266 267 269 270 273 277 280 281 283 285 286 285 285
274 274 274 274 275 274 273 270 269 268 267 266 261 260 258 256 255 254 256 256 256 258 259 259 260 261 264 266 266 265 265 267 267 270 274 277 279 280 282 284 285 284 282
274 274 274 274 273 273 273 271 270 269 268 265 261 259 257 254 254 256 255 256 257 257 257 257 258 259 262 266 266 265 265 265 267 271 274 276 278 280 281 282 284 283 282
274 275 275 274 273 271 272 271 270 269 267 264 260 258 257 257 256 256 255 254 254 254 255 256 257 258 260 264 263 264 265 266 269 272 273 274 277 280 281 282 283 284 283
277 276 276 275 274 272 271 270 270 268 266 264 260 259 258 258 256 256 254 252 252 252 252 253 256 257 259 262 262 263 265 267 268 269 271 273 277 279 281 281 281 282 282
280 278 277 276 277 272 270 268 266 264 264 261 260 259 258 259 258 257 255 252 251 252 251 251 253 254 257 260 262 264 264 265 266 267 269 273 275 277 279 279 280 280 281
285 282 278 277 277 272 269 266 264 264 264 262 260 258 258 258 258 256 255 253 252 250 250 252 255 256 258 260 263 264 263 263 265 266 269 273 274 275 276 277 278 279 280
287 285 282 279 276 272 269 267 266 265 263 261 260 259 257 257 256 255 254 253 251 250 251 252 255 258 257 259 262 264 264 263 264 265 268 272 273 274 275 277 278 279 280
288 287 284 282 278 274 271 269 268 267 265 263 262 260 258 257 256 255 255 254 254 253 252 252 254 257 257 259 262 263 263 263 265 267 268 269 271 273 275 277 278 279 280
289 287 285 283 281 276 273 272 270 270 269 266 262 259 258 256 256 256 256 256 255 255 254 255 257 257 256 258 260 261 264 265 266 267 268 268 270 272 274 276 277 278 278
290 288 285 283 281 277 275 274 272 272 268 265 260 258 258 257 257 257 258 259 257 255 254 256 258 256 256 258 261 262 262 262 263 264 266 268 270 271 273 274 275 276 277
291 289 286 286 285 279 274 272 271 271 270 267 264 262 262 261 258 258 259 257 255 255 256 257 257 255 256 259 259 259 259 259 261 263 266 269 270 272 273 274 275 276 278
292 290 288 287 289 282 275 270 269 269 270 270 268 266 264 261 258 258 259 257 256 256 257 258 258 257 256 256 256 256 256 258 261 263 266 269 271 273 275 275 275 276 278
293 292 290 289 289 284 277 271 271 272 273 274 272 268 265 262 259 258 258 258 259 259 259 259 259 259 259 259 260 260 261 261 264 266 269 272 272 274 275 275 276 277 278
295 296 296 292 291 289 285 279 275 274 273 273 273 270 268 265 263 262 261 260 259 259 260 261 262 263 264 265 265 265 266 266 266 268 270 273 274 275 276 277 278 280 280
Height
5817 5817 5817 5817 5817 5817 5817 5817 5817 5817 5817 5817 5817 5817 5817 5817 5817 5817 5818 5817 5817 5817 5817 5817 5817 5816 5816 5816 5815 5815 5814 5814 5814 5813 5812 5811 5811 5810 5809 5808 5807 5806 5805
5810 5810 5809 5810 5809 5809 5809 5809 5810 5810 5810 5810 5810 5810 5810 5810 5810 5811 5811 5811 5811 5811 5811 5811 5811 5810 5810 5810 5810 5809 5809 5808 5808 5808 5807 5806 5805 5804 5803 5802 5802 5801 5800
5802 5802 5802 5802 5802 5802 5801 5802 5802 5802 5802 5802 5802 5803 5803 5803 5803 5803 5804 5804 5804 5804 5804 5804 5805 5804 5804 5804 5804 5803 5803 5803 5802 5802 5801 5800 5800 5798 5797 5796 5796 5795 5794
5794 5794 5795 5795 5794 5794 5794 5794 5794 5793 5793 5794 5794 5795 5795 5795 5796 5796 5797 5797 5798 5798 5798 5798 5798 5798 5798 5798 5798 5797 5797 5796 5796 5795 5795 5794 5794 5792 5791 5790 5790 5788 5787
5786 5786 5786 5786 5786 5786 5785 5785 5784 5784 5784 5785 5785 5786 5787 5788 5788 5789 5789 5790 5791 5791 5791 5791 5791 5792 5792 5792 5792 5791 5791 5790 5790 5789 5789 5788 5787 5786 5785 5784 5783 5782 5781
5777 5777 5777 5777 5776 5776 5776 5776 5775 5775 5775 5776 5776 5778 5779 5780 5780 5781 5782 5782 5783 5783 5784 5784 5785 5785 5785 5785 5785 5785 5784 5784 5784 5783 5783 5782 5781 5780 5779 5778 5777 5775 5774
5767 5767 5767 5766 5766 5766 5766 5766 5766 5766 5766 5767 5768 5769 5770 5772 5773 5774 5774 5775 5776 5777 5777 5778 5778 5778 5778 5778 5778 5778 5778 5778 5777 5777 5776 5776 5775 5774 5773 5772 5770 5769 5768
5758 5757 5757 5757 5757 5757 5757 5756 5756 5757 5757 5758 5759 5760 5761 5763 5764 5766 5766 5767 5768 5769 5770 5770 5771 5771 5772 5772 5772 5771 5772 5771 5771 5770 5770 5769 5768 5768 5766 5765 5764 5762 5761
5748 5748 5748 5747 5747 5746 5747 5747 5747 5747 5748 5749 5750 5751 5752 5754 5756 5757 5758 5760 5761 5762 5762 5763 5763 5764 5764 5765 5765 5765 5765 5765 5764 5764 5763 5763 5762 5761 5759 5758 5757 5756 5754
5739 5739 5738 5738 5737 5737 5737 5737 5737 5738 5738 5739 5741 5742 5743 5745 5747 5748 5750 5751 5753 5754 5754 5754 5755 5756 5757 5756 5757 5757 5758 5758 5758 5757 5757 5756 5755 5754 5753 5752 5750 5749 5747
5730 5729 5729 5728 5728 5728 5727 5727 5727 5728 5728 5730 5731 5732 5733 5735 5737 5739 5740 5742 5744 5745 5746 5746 5747 5748 5748 5748 5749 5750 5750 5750 5750 5750 5750 5749 5748 5747 5746 5745 5743 5742 5740
5721 5721 5720 5719 5718 5718 5718 5718 5718 5718 5719 5719 5720 5722 5723 5725 5727 5729 5731 5732 5734 5736 5737 5738 5739 5740 5741 5741 5741 5742 5742 5743 5743 5743 5742 5742 5741 5740 5739 5738 5736 5734 5733
5712 5712 5711 5710 5709 5709 5709 5708 5708 5708 5709 5709 5710 5712 5713 5715 5717 5719 5721 5723 5724 5726 5728 5729 5730 5732 5732 5733 5734 5734 5734 5735 5735 5735 5735 5735 5734 5733 5732 5730 5729 5727 5726
5703 5703 5702 5701 5700 5700 5699 5699 5699 5699 5700 5700 5701 5702 5704 5706 5708 5710 5711 5713 5715 5717 5719 5720 5721 5723 5724 5724 5725 5726 5726 5727 5727 5727 5727 5727 5726 5725 5724 5722 5721 5720 5719
5694 5694 5693 5692 5691 5691 5691 5690 5690 5691 5691 5691 5692 5693 5695 5697 5699 5700 5702 5704 5706 5708 5710 5711 5713 5714 5715 5716 5717 5718 5718 5719 5719 5719 5719 5719 5718 5717 5716 5715 5714 5713 5712
5686 5685 5684 5683 5682 5682 5681 5682 5681 5682 5682 5683 5684 5685 5687 5688 5689 5691 5693 5694 5696 5699 5701 5703 5704 5706 5707 5708 5709 5709 5710 5711 5711 5711 5711 5711 5710 5709 5708 5707 5706 5705 5704
5678 5677 5676 5675 5674 5673 5673 5674 5674 5674 5674 5675 5676 5677 5678 5679 5681 5682 5684 5686 5688 5690 5692 5694 5696 5697 5699 5700 5701 5701 5702 5702 5702 5703 5703 5703 5702 5701 5700 5700 5699 5698 5697
5671 5669 5668 5668 5667 5666 5666 5666 5667 5667 5667 5667 5668 5669 5671 5672 5673 5674 5676 5677 5679 5681 5683 5686 5687 5689 5690 5691 5692 5693 5693 5694 5694 5695 5695 5695 5694 5694 5693 5692 5691 5691 5690
5664 5663 5662 5661 5660 5659 5659 5659 5660 5660 5660 5661 5661 5662 5663 5665 5666 5667 5668 5670 5672 5673 5675 5677 5679 5680 5681 5682 5683 5684 5685 5686 5686 5687 5687 5687 5686 5686 5685 5685 5684 5683 5683
5658 5657 5656 5655 5654 5653 5653 5653 5653 5653 5654 5654 5655 5656 5657 5658 5659 5660 5661 5663 5664 5666 5668 5669 5671 5672 5673 5674 5675 5676 5677 5677 5678 5678 5679 5679 5679 5678 5678 5677 5676 5676 5675
5653 5651 5650 5649 5648 5648 5647 5647 5647 5647 5647 5648 5648 5649 5649 5650 5652 5653 5654 5655 5657 5658 5660 5661 5662 5664 5665 5666 5667 5668 5669 5669 5670 5670 5671 5671 5671 5670 5670 5669 5669 5668 5668
5647 5646 5645 5644 5643 5642 5642 5641 5641 5641 5641 5641 5641 5642 5643 5643 5644 5646 5647 5648 5650 5651 5652 5653 5655 5656 5657 5658 5660 5660 5661 5662 5662 5663 5663 5663 5662 5662 5662 5661 5661 5660 5660
5642 5640 5639 5638 5637 5636 5636 5636 5635 5635 5635 5635 5635 5635 5636 5636 5637 5638 5639 5640 5642 5643 5644 5646 5647 5648 5649 5650 5651 5652 5653 5654 5654 5655 5655 5655 5655 5654 5654 5654 5653 5653 5652
5637 5636 5635 5633 5632 5631 5631 5630 5631 5630 5630 5630 5629 5629 5629 5630 5630 5632 5632 5633 5635 5636 5637 5638 5639 5640 5641 5642 5643 5644 5645 5646 5646 5647 5647 5647 5647 5647 5647 5646 5646 5645 5645
5633 5631 5630 5629 5628 5627 5626 5626 5626 5625 5625 5624 5623 5623 5623 5623 5624 5625 5627 5628 5629 5630 5631 5632 5633 5633 5634 5635 5636 5637 5638 5638 5639 5640 5640 5640 5640 5639 5639 5639 5638 5638 5637
5629 5627 5626 5624 5623 5622 5622 5621 5621 5620 5619 5618 5618 5618 5618 5618 5619 5620 5621 5622 5623 5624 5625 5625 5626 5627 5628 5628 5629 5630 5631 5631 5632 5632 5632 5632 5632 5632 5632 5631 5631 5630 5629